TimePDT,TemperatureF,Dew PointF,Humidity,Sea Level PressureIn,VisibilityMPH,Wind Direction,Wind SpeedMPH,Gust SpeedMPH,PrecipitationIn,Events,Conditions,WindDirDegrees,DateUTC
12:59 AM,43.0,41.0,93,30.05,10.0,SE,2.3,-,N/A,,Clear,130,2012-10-10 07:59:00
1:58 AM,39.4,37.4,93,30.05,10.0,SSE,4.6,-,N/A,,Clear,150,2012-10-10 08:58:00
2:59 AM,40.3,38.3,93,30.05,8.0,SSE,3.5,-,N/A,,Clear,150,2012-10-10 09:59:00
3:13 AM,41.0,39.2,93,30.02,10.0,SE,4.6,-,N/A,,Partly Cloudy,130,2012-10-10 10:13:00
3:23 AM,41.0,39.2,93,30.02,10.0,SE,4.6,-,N/A,,Mostly Cloudy,130,2012-10-10 10:23:00
3:38 AM,39.2,37.4,93,30.02,10.0,SE,3.5,-,N/A,,Overcast,130,2012-10-10 10:38:00
3:58 AM,39.4,37.4,93,30.04,10.0,SE,4.6,-,N/A,,Overcast,130,2012-10-10 10:58:00
4:28 AM,41.0,39.2,93,30.02,2.0,ESE,2.3,-,N/A,,Overcast,120,2012-10-10 11:28:00
4:33 AM,41.0,39.2,93,30.02,0.8,ESE,2.3,-,N/A,,Overcast,120,2012-10-10 11:33:00
4:38 AM,41.0,39.2,93,30.02,0.5,ESE,3.5,-,N/A,Fog,Fog,120,2012-10-10 11:38:00
4:43 AM,41.0,39.2,93,30.02,0.8,SE,3.5,-,N/A,,Mist,130,2012-10-10 11:43:00
4:48 AM,41.0,39.2,93,30.02,1.2,SSE,2.3,-,N/A,,Overcast,150,2012-10-10 11:48:00
4:53 AM,41.0,39.2,93,30.02,1.5,SE,3.5,-,N/A,,Overcast,140,2012-10-10 11:53:00
4:59 AM,41.0,39.2,93,30.04,4.0,SE,3.5,-,N/A,,Overcast,140,2012-10-10 11:59:00
5:49 AM,41.0,39.2,93,30.02,1.5,SE,4.6,-,N/A,,Overcast,140,2012-10-10 12:49:00
5:54 AM,41.0,39.2,93,30.02,0.8,SSE,3.5,-,N/A,,Overcast,150,2012-10-10 12:54:00
5:58 AM,40.3,39.0,95,30.04,0.8,SE,4.6,-,N/A,,Overcast,140,2012-10-10 12:58:00
6:03 AM,41.0,39.2,93,30.02,0.2,SE,4.6,-,N/A,Fog,Fog,140,2012-10-10 13:03:00
6:08 AM,41.0,39.2,93,30.02,0.2,SE,4.6,-,N/A,Fog,Fog,140,2012-10-10 13:08:00
6:13 AM,41.0,39.2,93,30.02,0.5,SSE,4.6,-,N/A,Fog,Fog,150,2012-10-10 13:13:00
6:18 AM,41.0,39.2,93,30.02,0.2,SE,4.6,-,N/A,Fog,Fog,140,2012-10-10 13:18:00
6:33 AM,41.0,39.2,93,30.02,0.5,SE,3.5,-,N/A,Fog,Fog,130,2012-10-10 13:33:00
6:38 AM,41.0,39.2,93,30.03,0.8,SE,2.3,-,N/A,,Mist,130,2012-10-10 13:38:00
6:43 AM,41.0,39.2,93,30.03,0.8,SE,2.3,-,N/A,,Mist,130,2012-10-10 13:43:00
6:48 AM,41.0,39.2,93,30.03,1.2,SE,2.3,-,N/A,,Overcast,130,2012-10-10 13:48:00
6:53 AM,41.0,39.2,93,30.03,1.0,SE,2.3,-,N/A,,Mist,130,2012-10-10 13:53:00
6:59 AM,41.0,39.2,93,30.05,0.8,SE,2.3,-,N/A,,Mist,130,2012-10-10 13:59:00
7:04 AM,41.0,39.2,93,30.02,0.5,ESE,3.5,-,N/A,Fog,Fog,120,2012-10-10 14:04:00
7:09 AM,41.0,41.0,100,30.02,0.5,SE,3.5,-,N/A,Fog,Fog,130,2012-10-10 14:09:00
7:14 AM,41.0,41.0,100,30.02,1.2,SE,4.6,-,N/A,,Overcast,140,2012-10-10 14:14:00
7:19 AM,41.0,41.0,100,30.02,1.0,SSE,4.6,-,N/A,,Mist,150,2012-10-10 14:19:00
7:24 AM,41.0,41.0,100,30.02,0.2,SSE,4.6,-,N/A,Fog,Fog,150,2012-10-10 14:24:00
7:29 AM,41.0,41.0,100,30.03,0.2,South,3.5,-,N/A,Fog,Fog,170,2012-10-10 14:29:00
7:58 AM,41.5,41.0,98,30.05,0.2,SE,3.5,-,N/A,Fog,Fog,140,2012-10-10 14:58:00
8:23 AM,42.8,42.8,100,30.04,0.2,SE,2.3,-,N/A,Fog,Fog,130,2012-10-10 15:23:00
9:14 AM,44.6,44.6,100,30.04,0.2,SE,3.5,-,N/A,Fog,Fog,140,2012-10-10 16:14:00
9:49 AM,44.6,44.6,100,30.05,0.2,SE,2.3,-,N/A,Fog,Fog,130,2012-10-10 16:49:00
9:58 AM,45.3,45.0,99,30.07,0.2,SE,2.3,-,N/A,Fog,Fog,140,2012-10-10 16:58:00
10:08 AM,46.4,46.4,100,30.04,0.2,SE,3.5,-,N/A,Fog,Fog,130,2012-10-10 17:08:00
10:13 AM,46.4,46.4,100,30.04,0.2,SE,3.5,-,N/A,Fog,Fog,130,2012-10-10 17:13:00
10:28 AM,46.4,46.4,100,30.04,0.5,ESE,3.5,-,N/A,Fog,Fog,120,2012-10-10 17:28:00
10:33 AM,46.4,46.4,100,30.04,0.5,SE,3.5,-,N/A,Fog,Fog,130,2012-10-10 17:33:00
10:38 AM,46.4,46.4,100,30.04,0.8,SE,3.5,-,N/A,,Overcast,130,2012-10-10 17:38:00
10:43 AM,46.4,46.4,100,30.04,1.0,ESE,2.3,-,N/A,,Overcast,120,2012-10-10 17:43:00
10:48 AM,46.4,46.4,100,30.04,1.2,SE,2.3,-,N/A,,Overcast,130,2012-10-10 17:48:00
10:53 AM,46.4,46.4,100,30.04,1.2,ESE,2.3,-,N/A,,Overcast,120,2012-10-10 17:53:00
10:59 AM,46.9,46.8,99,30.06,1.5,Variable,2.3,-,N/A,,Overcast,0,2012-10-10 17:59:00
11:09 AM,48.2,48.2,100,30.04,2.0,SE,1.2,-,N/A,,Overcast,140,2012-10-10 18:09:00
11:14 AM,48.2,46.4,93,30.04,2.2,Calm,Calm,-,N/A,,Overcast,340,2012-10-10 18:14:00
11:24 AM,48.2,48.2,100,30.04,2.8,South,3.5,-,N/A,,Overcast,190,2012-10-10 18:24:00
11:29 AM,48.2,46.4,93,30.04,3.0,Variable,2.3,-,N/A,,Overcast,0,2012-10-10 18:29:00
11:34 AM,48.2,46.4,93,30.04,3.0,Variable,2.3,-,N/A,,Overcast,0,2012-10-10 18:34:00
11:58 AM,48.4,46.8,94,30.06,9.0,WNW,1.2,-,N/A,,Overcast,300,2012-10-10 18:58:00
12:15 PM,48.2,46.4,93,30.03,3.0,WSW,4.6,-,N/A,,Overcast,250,2012-10-10 19:15:00
12:43 PM,50.0,46.4,87,30.03,5.0,Calm,Calm,-,N/A,,Overcast,10,2012-10-10 19:43:00
12:59 PM,49.6,46.2,88,30.05,6.0,Variable,2.3,-,N/A,,Overcast,0,2012-10-10 19:59:00
1:29 PM,50.0,46.4,87,30.02,7.0,Variable,2.3,-,N/A,,Overcast,0,2012-10-10 20:29:00
1:54 PM,50.0,46.4,87,30.02,10.0,West,3.5,-,N/A,,Overcast,280,2012-10-10 20:54:00
1:58 PM,50.0,46.8,89,30.04,10.0,West,3.5,-,N/A,,Overcast,280,2012-10-10 20:58:00
2:59 PM,49.8,46.8,89,30.03,8.0,Variable,3.5,-,N/A,,Overcast,0,2012-10-10 21:59:00
3:19 PM,50.0,46.4,87,30.00,10.0,NNW,3.5,-,N/A,,Overcast,330,2012-10-10 22:19:00
3:58 PM,49.8,46.6,89,30.02,10.0,WSW,3.5,-,N/A,,Overcast,240,2012-10-10 22:58:00
4:18 PM,50.0,46.4,87,30.00,10.0,West,4.6,-,N/A,,Overcast,260,2012-10-10 23:18:00
4:59 PM,49.6,46.6,89,30.01,10.0,NNW,2.3,-,N/A,,Overcast,330,2012-10-10 23:59:00
5:58 PM,49.8,46.9,90,30.01,10.0,ENE,3.5,-,N/A,,Overcast,60,2012-10-11 00:58:00
6:33 PM,50.0,46.4,87,29.98,10.0,NE,3.5,-,N/A,,Overcast,40,2012-10-11 01:33:00
6:43 PM,50.0,46.4,87,29.98,10.0,East,3.5,-,N/A,,Overcast,80,2012-10-11 01:43:00
6:59 PM,49.8,46.6,89,30.01,10.0,NE,4.6,-,N/A,,Overcast,40,2012-10-11 01:59:00
7:14 PM,50.0,46.4,87,29.99,10.0,NE,4.6,-,N/A,,Overcast,50,2012-10-11 02:14:00
7:58 PM,49.8,46.2,87,30.01,10.0,ENE,5.8,-,N/A,,Overcast,70,2012-10-11 02:58:00
8:48 PM,50.0,46.4,87,29.99,10.0,ENE,3.5,-,N/A,,Overcast,70,2012-10-11 03:48:00
8:59 PM,49.6,46.0,87,30.01,10.0,SE,2.3,-,N/A,,Overcast,130,2012-10-11 03:59:00
9:39 PM,50.0,46.4,87,30.00,10.0,NNE,5.8,-,N/A,,Overcast,30,2012-10-11 04:39:00
9:58 PM,49.8,46.8,89,30.02,7.0,ENE,3.5,-,N/A,,Overcast,70,2012-10-11 04:58:00
10:43 PM,50.0,46.4,87,29.99,7.0,East,3.5,-,N/A,,Overcast,100,2012-10-11 05:43:00
10:48 PM,50.0,46.4,87,30.00,7.0,East,2.3,-,N/A,,Overcast,100,2012-10-11 05:48:00
10:53 PM,50.0,46.4,87,30.00,7.0,NE,3.5,-,N/A,,Overcast,50,2012-10-11 05:53:00
10:59 PM,49.6,46.8,90,30.02,7.0,NE,3.5,-,N/A,,Overcast,50,2012-10-11 05:59:00
11:29 PM,50.0,46.4,87,29.99,7.0,East,3.5,-,N/A,,Overcast,90,2012-10-11 06:29:00
11:58 PM,49.8,46.8,89,30.01,7.0,ENE,2.3,-,N/A,,Overcast,70,2012-10-11 06:58:00